CAPE
0 0 0 0 0 0 0 0 0 0 0 0 0 0 0 0 0 0 0 0 0 0 0 0 0 0 0 0 0 0 19 567 774 1003 632 449 299 604 511 708 544 583 379 490
0 0 0 0 0 0 0 0 0 0 0 0 0 0 0 0 0 0 0 0 0 0 0 0 0 0 0 0 0 0 109 521 763 562 413 501 385 419 359 424 641 306 306 215
0 0 0 0 0 0 0 0 0 0 0 0 0 0 0 0 0 0 0 0 0 0 0 0 0 0 0 0 0 0 116 404 711 677 467 458 421 287 316 266 355 289 165 69
0 0 0 0 0 0 0 0 0 0 0 0 0 0 0 0 0 0 0 0 0 0 0 0 0 0 0 0 0 2 67 302 539 628 379 553 522 291 319 203 86 123 59 25
0 0 0 0 0 0 0 0 0 0 0 0 0 0 0 0 0 0 0 0 0 0 0 0 0 0 0 0 31 41 91 231 200 476 478 585 771 682 546 397 160 19 172 40
4 0 0 0 0 0 0 0 0 0 0 0 0 0 0 0 0 0 0 0 0 0 0 0 0 0 0 0 0 204 165 135 52 142 561 582 926 702 285 81 34 5 35 20
0 0 0 3 0 0 0 0 0 0 0 0 0 0 0 0 0 0 0 0 0 0 0 0 0 0 0 0 0 95 159 69 13 23 575 464 822 486 309 154 21 4 3 16
0 0 0 0 10 0 0 0 0 18 0 0 0 0 0 0 0 0 0 0 0 0 0 0 0 0 0 0 0 13 152 15 5 14 338 289 259 451 225 87 5 7 12 26
0 0 0 0 0 0 0 0 9 0 0 1 0 0 0 0 0 0 0 0 0 0 0 0 0 0 0 0 0 2 66 5 9 10 255 54 249 296 193 72 3 11 11 19
4 0 0 0 0 0 0 0 0 0 0 0 0 0 0 9 12 8 0 0 0 0 3 0 0 0 0 0 0 0 85 5 9 1 136 31 338 306 153 33 7 13 0 7
80 60 7 16 0 0 0 0 0 0 0 0 0 0 0 8 1 0 0 6 26 37 3 5 4 0 0 0 0 3 8 1 2 1 55 143 386 257 140 9 10 0 8 9
31 101 58 2 49 0 0 0 0 0 0 0 0 0 46 25 5 11 32 52 54 21 14 10 3 0 0 0 2 3 129 8 6 0 100 237 372 234 119 9 0 0 0 0
10 100 0 41 83 69 71 11 1 1 5 0 0 64 92 65 39 52 86 84 67 38 24 7 0 0 0 0 116 4 159 14 2 3 64 281 346 241 12 8 0 0 0 0
49 52 47 25 25 61 57 84 54 48 0 0 5 39 62 30 36 78 71 25 3 3 0 0 0 0 0 26 29 92 77 12 4 8 49 325 267 176 7 7 0 0 0 0
29 72 51 32 21 31 53 40 32 24 24 4 31 3 25 46 84 16 5 3 0 0 0 0 0 0 0 16 230 76 71 139 118 77 193 314 234 3 7 3 0 0 0 0
31 38 4 5 4 19 9 0 2 0 0 0 0 8 9 21 5 2 0 0 0 0 0 0 0 0 0 12 279 102 109 89 44 130 224 186 101 6 5 6 0 0 0 0
18 45 20 19 7 15 5 0 0 9 12 4 22 36 4 6 1 1 1 1 0 0 0 0 0 0 0 2 57 75 59 136 45 124 111 157 10 0 0 1 5 0 0 0
30 29 33 29 11 0 100 125 38 16 32 7 4 19 11 7 3 2 2 0 0 0 0 0 0 0 0 0 25 10 33 51 108 81 91 128 55 2 1 0 0 0 1 7
27 2 45 25 0 5 0 45 58 61 20 4 10 11 23 0 3 4 5 0 0 0 0 0 0 7 0 0 0 0 28 58 25 23 26 31 60 111 49 31 8 0 0 1
26 25 44 0 0 0 125 15 30 147 17 0 2 0 0 0 0 0 2 0 0 0 0 0 0 0 0 0 0 12 45 16 0 19 8 6 10 12 8 32 29 46 71 42
124 173 126 23 0 0 0 0 5 140 11 4 1 1 0 0 0 0 0 0 0 0 0 0 0 2 0 0 0 0 0 0 0 0 0 10 12 2 7 5 19 36 23 66
116 106 82 47 0 0 0 49 49 0 0 0 0 0 0 0 0 0 0 0 0 0 0 0 0 0 5 1 3 0 2 0 0 0 21 53 12 16 5 10 14 39 102 74
162 91 69 112 122 0 0 3 0 0 0 0 0 0 0 0 0 0 0 0 0 0 0 0 0 0 0 0 0 18 0 0 0 12 88 47 37 33 26 15 16 1 7 19
91 0 0 0 0 0 0 0 2 2 0 0 0 0 0 0 0 0 0 0 1 0 0 0 0 0 0 0 0 0 0 0 0 0 0 0 0 0 0 0 3 0 0 5
9 0 0 0 0 0 0 0 1 0 0 0 0 0 0 0 0 0 0 0 2 0 0 0 0 0 0 0 0 0 0 0 0 0 0 0 0 0 0 0 0 4 3 3
0 0 0 0 0 0 0 0 0 0 0 0 0 0 0 0 0 0 0 0 0 1 2 0 0 0 0 0 0 0 0 0 0 0 0 0 0 0 0 0 0 0 1 6
CIN
-0 -0 -0 -0 -0 -0 -0 -0 -0 -0 -0 -0 -0 -0 -0 -0 -0 -0 -0 -0 -0 -0 -0 -0 -0 -0 -0 -0 -0 -0 -372 -265 -237 -227 -294 -337 -381 -238 -210 -128 -115 -67 -40 -2
-0 -0 -0 -0 -0 -0 -0 -0 -0 -0 -0 -0 -0 -0 -0 -0 -0 -0 -0 -0 -0 -0 -0 -0 -0 -0 -0 -0 -0 -0 -299 -288 -260 -312 -345 -296 -340 -261 -238 -189 -101 -126 -65 -42
-0 -0 -0 -0 -0 -0 -0 -0 -0 -0 -0 -0 -0 -0 -0 -0 -0 -0 -0 -0 -0 -0 -0 -0 -0 -0 -0 -0 -0 -0 -291 -275 -264 -279 -330 -272 -300 -270 -215 -219 -152 -132 -101 -82
-0 -0 -0 -0 -0 -0 -0 -0 -0 -0 -0 -0 -0 -4 -0 -0 -0 -0 -0 -0 -0 -0 -0 -0 -0 -0 -0 -0 -0 -310 -350 -289 -288 -269 -374 -299 -349 -335 -247 -131 -216 -155 -142 -114
-0 -0 -0 -0 -0 -0 -0 -0 -0 -0 -0 -1 -0 -0 -0 -0 -0 -0 -0 -0 -0 -0 -0 -0 -0 -0 -0 -0 -280 -369 -369 -304 -357 -298 -344 -279 -236 -197 -182 -163 -195 -33 -78 -94
-0 -0 -0 -0 -0 -0 -0 -0 -0 -0 -0 -0 -0 -0 -0 -0 -0 -0 -0 -0 -0 -0 -0 -0 -0 -0 -0 -0 -0 -262 -315 -362 -454 -401 -304 -281 -192 -182 -247 -118 -102 -0 -141 -67
-0 -0 -0 -20 -0 -0 -0 -0 -3 -0 -0 -0 -0 -0 -0 -0 -0 -0 -0 -0 -0 -0 -0 -0 -0 -0 -0 -0 -0 -319 -295 -429 -214 -517 -277 -295 -185 -212 -220 -185 -104 -0 -0 -0
-0 -0 -0 -2 -9 -0 -0 -0 -0 -0 -0 -0 -0 -0 -0 -0 -0 -0 -0 -0 -0 -0 -0 -0 -0 -0 -0 -0 -0 -411 -276 -523 -0 -29 -317 -309 -306 -183 -123 -97 -129 -0 -0 -0
-0 -0 -0 -0 -0 -0 -0 -0 -8 -0 -0 -0 -0 -0 -0 -0 -1 -1 -0 -0 -0 -0 -0 -0 -0 -0 -0 -0 -0 -424 -374 -221 -0 -0 -322 -463 -261 -150 -98 -98 -0 -0 -0 -0
-9 -0 -0 -0 -0 -0 -0 -0 -0 -0 -0 -0 -0 -0 -0 -9 -4 -10 -0 -0 -0 -0 -14 -0 -0 -0 -0 -0 -0 -0 -357 -0 -0 -21 -363 -432 -191 -125 -83 -126 -0 -0 -0 -0
-35 -11 -16 -12 -0 -0 -0 -0 -0 -0 -0 -0 -0 -0 -0 -0 -0 -0 -0 -4 -22 -29 -8 -0 -0 -0 -0 -0 -0 -411 -154 -0 -0 -37 -433 -308 -140 -93 -69 -0 -0 -0 -0 -0
-69 -36 -0 -0 -25 -15 -0 -0 -0 -0 -0 -0 -0 -0 -6 -12 -19 -14 -7 -7 -2 -1 -0 -0 -0 -0 -0 -0 -0 -1 -228 -0 -90 -0 -345 -193 -110 -74 -93 -0 -0 -0 -0 -0
-9 -18 -0 -4 -12 -13 -0 -11 -0 -0 -0 -0 -0 -0 -4 -11 -6 -5 -0 -0 -0 -0 -0 -0 -0 -0 -0 -0 -147 -0 -90 -275 -0 -0 -347 -163 -99 -72 -62 -0 -0 -0 -0 -0
-18 -21 -7 -0 -5 -9 -8 -3 -4 -0 -0 -0 -0 -0 -1 -0 -0 -0 -1 -1 -0 -3 -0 -0 -0 -0 -0 -39 -67 -81 -94 -149 -109 -116 -229 -119 -81 -64 -0 -0 -0 -0 -0 -0
-30 -11 -28 -34 -55 -50 -16 -10 -7 -2 -0 -0 -0 -1 -0 -0 -0 -4 -0 -0 -0 -0 -0 -0 -0 -0 -0 -31 -5 -59 -76 -128 -212 -214 -116 -99 -51 -22 -0 -0 -0 -0 -0 -0
-3 -2 -0 -72 -67 -47 -34 -0 -22 -0 -0 -0 -0 -0 -1 -1 -0 -0 -0 -0 -0 -0 -0 -0 -0 -0 -0 -98 -0 -27 -31 -89 -114 -69 -95 -58 -52 -0 -0 -0 -0 -0 -0 -0
-1 -0 -12 -21 -0 -0 -0 -0 -0 -0 -0 -0 -1 -2 -0 -0 -0 -0 -0 -0 -0 -0 -0 -0 -0 -0 -0 -1 -4 -14 -26 -20 -40 -50 -33 -18 -51 -0 -0 -0 -0 -0 -0 -0
-5 -0 -0 -0 -0 -0 -1 -0 -10 -0 -16 -0 -0 -1 -0 -1 -0 -0 -0 -0 -0 -0 -0 -0 -0 -0 -0 -0 -0 -3 -0 -2 -0 -0 -3 -6 -18 -0 -0 -0 -0 -0 -0 -0
-4 -1 -0 -0 -0 -1 -0 -8 -2 -3 -1 -1 -11 -3 -0 -0 -0 -0 -0 -0 -0 -0 -0 -0 -0 -1 -0 -0 -0 -0 -0 -3 -0 -5 -8 -15 -12 -7 -14 -38 -38 -0 -0 -0
-6 -1 -3 -0 -0 -0 -0 -6 -1 -0 -0 -0 -0 -0 -0 -0 -0 -0 -1 -0 -0 -0 -0 -0 -0 -0 -0 -0 -0 -1 -0 -0 -0 -0 -0 -0 -2 -3 -8 -4 -24 -17 -15 -22
-0 -2 -0 -3 -0 -0 -0 -0 -34 -0 -1 -0 -0 -0 -0 -0 -0 -0 -0 -0 -0 -0 -0 -0 -0 -0 -0 -0 -0 -0 -1 -0 -0 -0 -0 -1 -0 -1 -1 -22 -34 -67 -59 -20
-0 -0 -0 -0 -0 -0 -0 -2 -2 -0 -0 -0 -0 -0 -0 -0 -0 -0 -0 -0 -0 -0 -0 -0 -0 -0 -1 -3 -1 -1 -0 -0 -0 -0 -1 -1 -23 -35 -6 -64 -51 -36 -23 -24
-0 -0 -0 -0 -0 -0 -0 -0 -0 -0 -0 -0 -0 -0 -0 -0 -0 -0 -0 -0 -0 -0 -0 -0 -0 -0 -0 -0 -0 -2 -0 -0 -0 -29 -0 -1 -2 -4 -16 -19 -31 -5 -7 -70
-2 -0 -0 -0 -0 -0 -0 -0 -1 -1 -0 -0 -0 -0 -0 -0 -0 -0 -0 -0 -0 -0 -0 -0 -0 -0 -0 -0 -0 -0 -0 -0 -0 -0 -0 -0 -0 -0 -0 -0 -0 -0 -0 -0
-0 -0 -0 -0 -0 -0 -0 -0 -1 -2 -0 -0 -0 -0 -0 -0 -0 -0 -0 -0 -0 -0 -0 -0 -0 -0 -0 -0 -0 -0 -0 -0 -0 -0 -0 -0 -0 -0 -0 -0 -0 -0 -0 -0
-0 -3 -0 -17 -0 -0 -0 -0 -0 -0 -0 -0 -0 -0 -0 -0 -0 -0 -0 -0 -0 -0 -0 -0 -0 -0 -0 -0 -0 -0 -0 -0 -0 -0 -0 -0 -0 -0 -0 -0 -0 -0 -0 -0
Wind_Speed
nan nan nan nan nan nan nan nan nan nan nan nan nan nan nan nan nan nan nan nan nan nan nan nan nan nan nan nan nan nan nan 30 33 33 29 29 29 31 30 30 27 25 23 25
nan nan nan nan nan nan nan nan nan nan nan nan nan nan nan nan nan nan nan nan nan nan nan nan nan nan nan nan nan nan 30 31 35 35 30 30 33 31 29 33 27 26 25 24
nan nan nan nan nan nan nan nan nan nan nan nan nan nan nan nan nan nan nan nan nan nan nan nan nan nan nan nan nan nan 31 32 34 37 38 33 35 31 31 34 29 27 26 nan
nan nan nan nan nan nan nan nan nan nan nan nan nan nan nan nan nan nan nan nan nan nan nan nan nan nan nan nan nan nan nan 32 34 34 42 35 36 33 29 33 nan 28 nan nan
nan nan nan nan nan nan nan nan nan nan nan nan nan nan nan nan nan nan nan nan nan nan nan nan nan nan nan nan nan nan nan 33 31 34 40 36 34 30 32 32 30 nan 29 nan
nan nan nan nan nan nan nan nan nan nan nan nan nan nan nan nan nan nan nan nan nan nan nan nan nan nan nan nan nan 36 35 35 nan 34 36 32 33 34 34 nan nan nan nan nan
nan nan nan nan nan nan nan nan nan nan nan nan nan nan nan nan nan nan nan nan nan nan nan nan nan nan nan nan nan nan 31 nan nan nan 35 31 32 35 33 33 nan nan nan nan
nan nan nan nan nan nan nan nan nan nan nan nan nan nan nan nan nan nan nan nan nan nan nan nan nan nan nan nan nan nan 32 nan nan nan 37 32 33 36 30 nan nan nan nan nan
nan nan nan nan nan nan nan nan nan nan nan nan nan nan nan nan nan nan nan nan nan nan nan nan nan nan nan nan nan nan nan nan nan nan 41 nan 35 36 31 nan nan nan nan nan
nan nan nan nan nan nan nan nan nan nan nan nan nan nan nan nan nan nan nan nan nan nan nan nan nan nan nan nan nan nan nan nan nan nan 44 nan 37 37 31 nan nan nan nan nan
nan nan nan nan nan nan nan nan nan nan nan nan nan nan nan nan nan nan nan nan nan nan nan nan nan nan nan nan nan nan nan nan nan nan nan 42 39 37 31 nan nan nan nan nan
nan 27 nan nan nan nan nan nan nan nan nan nan nan nan nan nan nan nan nan nan nan nan nan nan nan nan nan nan nan nan 45 nan nan nan 47 45 41 37 30 nan nan nan nan nan
nan 20 nan nan nan nan nan nan nan nan nan nan nan nan nan nan nan nan nan nan nan nan nan nan nan nan nan nan 51 nan 37 nan nan nan nan 47 40 36 nan nan nan nan nan nan
nan nan nan nan nan nan nan nan nan nan nan nan nan nan nan nan nan nan nan nan nan nan nan nan nan nan nan nan nan nan nan nan nan nan nan 42 41 33 nan nan nan nan nan nan
nan nan nan nan nan nan nan nan nan nan nan nan nan nan nan nan nan nan nan nan nan nan nan nan nan nan nan nan 41 nan nan 42 44 nan 42 40 34 nan nan nan nan nan nan nan
nan nan nan nan nan nan nan nan nan nan nan nan nan nan nan nan nan nan nan nan nan nan nan nan nan nan nan nan 36 40 35 nan nan 43 42 35 30 nan nan nan nan nan nan nan
nan nan nan nan nan nan nan nan nan nan nan nan nan nan nan nan nan nan nan nan nan nan nan nan nan nan nan nan nan nan nan 34 nan 39 34 25 nan nan nan nan nan nan nan nan
nan nan nan nan nan nan 27 20 nan nan nan nan nan nan nan nan nan nan nan nan nan nan nan nan nan nan nan nan nan nan nan nan 43 nan nan 33 nan nan nan nan nan nan nan nan
nan nan nan nan nan nan nan nan nan nan nan nan nan nan nan nan nan nan nan nan nan nan nan nan nan nan nan nan nan nan nan nan nan nan nan nan nan 40 nan nan nan nan nan nan
nan nan nan nan nan nan 16 nan nan 21 nan nan nan nan nan nan nan nan nan nan nan nan nan nan nan nan nan nan nan nan nan nan nan nan nan nan nan nan nan nan nan nan nan nan
7 5 8 nan nan nan nan nan nan 17 nan nan nan nan nan nan nan nan nan nan nan nan nan nan nan nan nan nan nan nan nan nan nan nan nan nan nan nan nan nan nan nan nan nan
16 11 nan nan nan nan nan nan nan nan nan nan nan nan nan nan nan nan nan nan nan nan nan nan nan nan nan nan nan nan nan nan nan nan nan nan nan nan nan nan nan nan 29 nan
12 nan nan 13 14 nan nan nan nan nan nan nan nan nan nan nan nan nan nan nan nan nan nan nan nan nan nan nan nan nan nan nan nan nan nan nan nan nan nan nan nan nan nan nan
nan nan nan nan nan nan nan nan nan nan nan nan nan nan nan nan nan nan nan nan nan nan nan nan nan nan nan nan nan nan nan nan nan nan nan nan nan nan nan nan nan nan nan nan
nan nan nan nan nan nan nan nan nan nan nan nan nan nan nan nan nan nan nan nan nan nan nan nan nan nan nan nan nan nan nan nan nan nan nan nan nan nan nan nan nan nan nan nan
nan nan nan nan nan nan nan nan nan nan nan nan nan nan nan nan nan nan nan nan nan nan nan nan nan nan nan nan nan nan nan nan nan nan nan nan nan nan nan nan nan nan nan nan
Wind_Direction
nan nan nan nan nan nan nan nan nan nan nan nan nan nan nan nan nan nan nan nan nan nan nan nan nan nan nan nan nan nan nan 284 285 284 290 286 289 290 301 301 305 302 302 309
nan nan nan nan nan nan nan nan nan nan nan nan nan nan nan nan nan nan nan nan nan nan nan nan nan nan nan nan nan nan 279 284 288 281 282 281 282 286 293 293 298 299 305 301
nan nan nan nan nan nan nan nan nan nan nan nan nan nan nan nan nan nan nan nan nan nan nan nan nan nan nan nan nan nan 276 285 288 290 278 277 281 283 285 292 290 292 302 nan
nan nan nan nan nan nan nan nan nan nan nan nan nan nan nan nan nan nan nan nan nan nan nan nan nan nan nan nan nan nan nan 281 284 286 282 292 286 289 289 294 nan 289 nan nan
nan nan nan nan nan nan nan nan nan nan nan nan nan nan nan nan nan nan nan nan nan nan nan nan nan nan nan nan nan nan nan 273 275 275 278 283 292 290 291 295 296 nan 292 nan
nan nan nan nan nan nan nan nan nan nan nan nan nan nan nan nan nan nan nan nan nan nan nan nan nan nan nan nan nan 256 267 269 nan 262 272 286 293 290 284 nan nan nan nan nan
nan nan nan nan nan nan nan nan nan nan nan nan nan nan nan nan nan nan nan nan nan nan nan nan nan nan nan nan nan nan 261 nan nan nan 257 274 280 284 288 297 nan nan nan nan
nan nan nan nan nan nan nan nan nan nan nan nan nan nan nan nan nan nan nan nan nan nan nan nan nan nan nan nan nan nan 259 nan nan nan 249 258 269 269 272 nan nan nan nan nan
nan nan nan nan nan nan nan nan nan nan nan nan nan nan nan nan nan nan nan nan nan nan nan nan nan nan nan nan nan nan nan nan nan nan 244 nan 261 267 270 nan nan nan nan nan
nan nan nan nan nan nan nan nan nan nan nan nan nan nan nan nan nan nan nan nan nan nan nan nan nan nan nan nan nan nan nan nan nan nan 244 nan 255 263 267 nan nan nan nan nan
nan nan nan nan nan nan nan nan nan nan nan nan nan nan nan nan nan nan nan nan nan nan nan nan nan nan nan nan nan nan nan nan nan nan nan 245 254 263 263 nan nan nan nan nan
nan 201 nan nan nan nan nan nan nan nan nan nan nan nan nan nan nan nan nan nan nan nan nan nan nan nan nan nan nan nan 268 nan nan nan 239 243 252 261 265 nan nan nan nan nan
nan 210 nan nan nan nan nan nan nan nan nan nan nan nan nan nan nan nan nan nan nan nan nan nan nan nan nan nan 246 nan 263 nan nan nan nan 243 250 256 nan nan nan nan nan nan
nan nan nan nan nan nan nan nan nan nan nan nan nan nan nan nan nan nan nan nan nan nan nan nan nan nan nan nan nan nan nan nan nan nan nan 241 243 247 nan nan nan nan nan nan
nan nan nan nan nan nan nan nan nan nan nan nan nan nan nan nan nan nan nan nan nan nan nan nan nan nan nan nan 214 nan nan 220 226 nan 233 232 233 nan nan nan nan nan nan nan
nan nan nan nan nan nan nan nan nan nan nan nan nan nan nan nan nan nan nan nan nan nan nan nan nan nan nan nan 200 182 199 nan nan 227 225 225 232 nan nan nan nan nan nan nan
nan nan nan nan nan nan nan nan nan nan nan nan nan nan nan nan nan nan nan nan nan nan nan nan nan nan nan nan nan nan nan 224 nan 219 224 226 nan nan nan nan nan nan nan nan
nan nan nan nan nan nan 246 233 nan nan nan nan nan nan nan nan nan nan nan nan nan nan nan nan nan nan nan nan nan nan nan nan 214 nan nan 224 nan nan nan nan nan nan nan nan
nan nan nan nan nan nan nan nan nan nan nan nan nan nan nan nan nan nan nan nan nan nan nan nan nan nan nan nan nan nan nan nan nan nan nan nan nan 234 nan nan nan nan nan nan
nan nan nan nan nan nan 225 nan nan 201 nan nan nan nan nan nan nan nan nan nan nan nan nan nan nan nan nan nan nan nan nan nan nan nan nan nan nan nan nan nan nan nan nan nan
222 128 81 nan nan nan nan nan nan 198 nan nan nan nan nan nan nan nan nan nan nan nan nan nan nan nan nan nan nan nan nan nan nan nan nan nan nan nan nan nan nan nan nan nan
189 198 nan nan nan nan nan nan nan nan nan nan nan nan nan nan nan nan nan nan nan nan nan nan nan nan nan nan nan nan nan nan nan nan nan nan nan nan nan nan nan nan 238 nan
220 nan nan 194 217 nan nan nan nan nan nan nan nan nan nan nan nan nan nan nan nan nan nan nan nan nan nan nan nan nan nan nan nan nan nan nan nan nan nan nan nan nan nan nan
nan nan nan nan nan nan nan nan nan nan nan nan nan nan nan nan nan nan nan nan nan nan nan nan nan nan nan nan nan nan nan nan nan nan nan nan nan nan nan nan nan nan nan nan
nan nan nan nan nan nan nan nan nan nan nan nan nan nan nan nan nan nan nan nan nan nan nan nan nan nan nan nan nan nan nan nan nan nan nan nan nan nan nan nan nan nan nan nan
nan nan nan nan nan nan nan nan nan nan nan nan nan nan nan nan nan nan nan nan nan nan nan nan nan nan nan nan nan nan nan nan nan nan nan nan nan nan nan nan nan nan nan nan